• In Österreich
  • Länderverzeichnis
  • Für 7 Tage
  • Wassertemperatur
  • Satellitenkarten
  • Wetterkarte
  • News
  • Widgets
  • user-avatar
    Anmelden

    Stündliche Wetter Zhitkovo

    Heute, 15 August, Mittwoch

    Zeit Temperatur Niederschläge Wind Luftdruck Luftfeuchtigkeit
    00:00 +14°C° 0 mm 1 m/S 744 mmHg 86%
    01:00 +14°C° 0 mm 2 m/S 744 mmHg 87%
    02:00 +14°C° 0 mm 2 m/S 744 mmHg 88%
    03:00 +14°C° 0,1 mm 2 m/S 743 mmHg 90%
    04:00 +15°C° 0,1 mm 2 m/S 743 mmHg 91%
    05:00 +15°C° 0,1 mm 2 m/S 743 mmHg 93%
    06:00 +16°C° 0,5 mm 2 m/S 742 mmHg 93%
    07:00 +17°C° 0,5 mm 3 m/S 742 mmHg 93%
    08:00 +18°C° 0,5 mm 3 m/S 742 mmHg 93%
    09:00 +19°C° 0,8 mm 3 m/S 741 mmHg 91%
    10:00 +20°C° 0,8 mm 3 m/S 741 mmHg 89%
    11:00 +21°C° 0,8 mm 3 m/S 741 mmHg 88%
    12:00 +22°C° 1,7 mm 3 m/S 740 mmHg 88%
    13:00 +22°C° 1,7 mm 3 m/S 740 mmHg 87%
    14:00 +22°C° 1,7 mm 3 m/S 740 mmHg 87%
    15:00 +22°C° 0,9 mm 3 m/S 740 mmHg 88%
    16:00 +21°C° 0,9 mm 3 m/S 740 mmHg 89%
    17:00 +21°C° 0,9 mm 3 m/S 741 mmHg 90%
    18:00 +20°C° 0,5 mm 3 m/S 741 mmHg 92%
    19:00 +19°C° 0,5 mm 2 m/S 741 mmHg 95%
    20:00 +18°C° 0,5 mm 2 m/S 741 mmHg 97%
    21:00 +17°C° 0,1 mm 2 m/S 742 mmHg 97%
    22:00 +17°C° 0,1 mm 2 m/S 742 mmHg 98%
    23:00 +16°C° 0,1 mm 2 m/S 742 mmHg 98%

    Morgen, 16 August, Donnerstag

    Zeit Temperatur Niederschläge Wind Luftdruck Luftfeuchtigkeit
    00:00 +16°C° 0 mm 1 m/S 743 mmHg 98%
    01:00 +16°C° 0 mm 1 m/S 743 mmHg 98%
    02:00 +15°C° 0 mm 1 m/S 743 mmHg 98%
    03:00 +15°C° 0 mm 1 m/S 744 mmHg 98%
    04:00 +15°C° 0 mm 1 m/S 744 mmHg 98%
    05:00 +15°C° 0 mm 1 m/S 744 mmHg 98%
    06:00 +15°C° 0 mm 1 m/S 745 mmHg 95%
    07:00 +16°C° 0 mm 1 m/S 745 mmHg 92%
    08:00 +16°C° 0 mm 1 m/S 745 mmHg 90%
    09:00 +18°C° 0 mm 1 m/S 746 mmHg 84%
    10:00 +19°C° 0 mm 1 m/S 746 mmHg 78%
    11:00 +20°C° 0 mm 1 m/S 746 mmHg 71%
    12:00 +21°C° 0 mm 1 m/S 746 mmHg 67%
    13:00 +21°C° 0 mm 2 m/S 746 mmHg 63%
    14:00 +23°C° 0 mm 2 m/S 746 mmHg 59%
    15:00 +23°C° 0 mm 2 m/S 747 mmHg 60%
    16:00 +21°C° 0 mm 2 m/S 747 mmHg 62%
    17:00 +22°C° 0 mm 1 m/S 747 mmHg 64%
    18:00 +20°C° 0 mm 1 m/S 747 mmHg 71%
    19:00 +18°C° 0 mm 1 m/S 748 mmHg 77%
    20:00 +15°C° 0 mm 1 m/S 748 mmHg 84%
    21:00 +15°C° 0 mm 1 m/S 748 mmHg 86%
    22:00 +14°C° 0 mm 1 m/S 748 mmHg 88%
    23:00 +13°C° 0 mm 1 m/S 749 mmHg 90%

    übermorgen, 17 August, Freitag

    Zeit Temperatur Niederschläge Wind Luftdruck Luftfeuchtigkeit
    00:00 +13°C° 0 mm 1 m/S 749 mmHg 91%
    01:00 +13°C° 0 mm 1 m/S 749 mmHg 92%
    02:00 +12°C° 0 mm 1 m/S 750 mmHg 93%
    03:00 +12°C° 0 mm 1 m/S 750 mmHg 92%
    04:00 +12°C° 0 mm 1 m/S 750 mmHg 92%
    05:00 +12°C° 0 mm 1 m/S 750 mmHg 92%
    06:00 +14°C° 0 mm 1 m/S 751 mmHg 84%
    07:00 +16°C° 0 mm 1 m/S 751 mmHg 76%
    08:00 +20°C° 0 mm 1 m/S 751 mmHg 68%
    09:00 +21°C° 0 mm 1 m/S 751 mmHg 63%
    10:00 +21°C° 0 mm 2 m/S 751 mmHg 57%
    11:00 +24°C° 0 mm 2 m/S 751 mmHg 51%
    12:00 +24°C° 0 mm 2 m/S 751 mmHg 50%
    13:00 +24°C° 0 mm 2 m/S 751 mmHg 48%
    14:00 +25°C° 0 mm 2 m/S 751 mmHg 46%
    15:00 +24°C° 0 mm 2 m/S 751 mmHg 51%
    16:00 +24°C° 0 mm 1 m/S 751 mmHg 56%
    17:00 +24°C° 0 mm 1 m/S 751 mmHg 61%
    18:00 +21°C° 0 mm 1 m/S 751 mmHg 67%
    19:00 +18°C° 0 mm 2 m/S 751 mmHg 74%
    20:00 +16°C° 0 mm 2 m/S 751 mmHg 81%
    21:00 +15°C° 0 mm 2 m/S 751 mmHg 82%
    22:00 +15°C° 0 mm 2 m/S 751 mmHg 84%
    23:00 +14°C° 0 mm 2 m/S 751 mmHg 85%

    18 August, Samstag

    Zeit Temperatur Niederschläge Wind Luftdruck Luftfeuchtigkeit
    00:00 +13°C° 0 mm 2 m/S 751 mmHg 86%
    01:00 +13°C° 0 mm 1 m/S 751 mmHg 87%
    02:00 +13°C° 0 mm 1 m/S 751 mmHg 88%
    03:00 +13°C° 0 mm 1 m/S 751 mmHg 89%
    04:00 +12°C° 0 mm 1 m/S 751 mmHg 90%
    05:00 +12°C° 0 mm 1 m/S 752 mmHg 92%
    06:00 +15°C° 0 mm 1 m/S 752 mmHg 85%
    07:00 +17°C° 0 mm 2 m/S 752 mmHg 78%
    08:00 +19°C° 0 mm 2 m/S 752 mmHg 70%
    09:00 +20°C° 0 mm 2 m/S 752 mmHg 64%
    10:00 +23°C° 0 mm 2 m/S 752 mmHg 58%
    11:00 +25°C° 0 mm 2 m/S 751 mmHg 52%
    12:00 +25°C° 0 mm 2 m/S 751 mmHg 51%
    13:00 +26°C° 0 mm 2 m/S 751 mmHg 50%
    14:00 +26°C° 0 mm 3 m/S 750 mmHg 48%
    15:00 +26°C° 0 mm 2 m/S 750 mmHg 53%
    16:00 +25°C° 0 mm 2 m/S 750 mmHg 58%
    17:00 +25°C° 0 mm 2 m/S 750 mmHg 62%
    18:00 +23°C° 0 mm 2 m/S 750 mmHg 69%
    19:00 +20°C° 0 mm 2 m/S 750 mmHg 75%
    20:00 +18°C° 0 mm 2 m/S 750 mmHg 82%
    21:00 +17°C° 0 mm 2 m/S 750 mmHg 84%
    22:00 +16°C° 0 mm 2 m/S 750 mmHg 86%
    23:00 +16°C° 0 mm 2 m/S 750 mmHg 88%

    19 August, Sonntag

    Zeit Temperatur Niederschläge Wind Luftdruck Luftfeuchtigkeit
    00:00 +15°C° 0 mm 2 m/S 750 mmHg 89%
    01:00 +15°C° 0 mm 2 m/S 749 mmHg 90%
    02:00 +14°C° 0 mm 2 m/S 749 mmHg 91%
    03:00 +14°C° 0 mm 2 m/S 749 mmHg 92%
    04:00 +14°C° 0 mm 2 m/S 749 mmHg 92%
    05:00 +14°C° 0 mm 2 m/S 749 mmHg 92%
    06:00 +16°C° 0 mm 3 m/S 749 mmHg 84%
    07:00 +17°C° 0 mm 3 m/S 749 mmHg 76%
    08:00 +19°C° 0 mm 4 m/S 749 mmHg 68%
    09:00 +21°C° 0 mm 4 m/S 748 mmHg 63%
    10:00 +22°C° 0 mm 4 m/S 748 mmHg 57%
    11:00 +25°C° 0 mm 5 m/S 748 mmHg 52%
    12:00 +25°C° 0 mm 5 m/S 747 mmHg 52%
    13:00 +25°C° 0 mm 5 m/S 747 mmHg 52%
    14:00 +26°C° 0 mm 5 m/S 746 mmHg 52%
    15:00 +25°C° 0,1 mm 4 m/S 746 mmHg 56%
    16:00 +23°C° 0,1 mm 4 m/S 746 mmHg 60%
    17:00 +23°C° 0,1 mm 4 m/S 745 mmHg 64%
    18:00 +21°C° 0,5 mm 3 m/S 745 mmHg 71%
    19:00 +19°C° 0,5 mm 3 m/S 745 mmHg 78%
    20:00 +18°C° 0,5 mm 2 m/S 745 mmHg 84%
    21:00 +17°C° 0,4 mm 2 m/S 745 mmHg 87%
    22:00 +17°C° 0,4 mm 2 m/S 745 mmHg 90%
    23:00 +17°C° 0,4 mm 2 m/S 745 mmHg 93%

    20 August, Montag

    Zeit Temperatur Niederschläge Wind Luftdruck Luftfeuchtigkeit
    00:00 +16°C° 0,3 mm 2 m/S 745 mmHg 94%
    01:00 +16°C° 0,3 mm 2 m/S 745 mmHg 96%
    02:00 +15°C° 0,3 mm 1 m/S 745 mmHg 97%
    03:00 +15°C° 0 mm 2 m/S 745 mmHg 97%
    04:00 +15°C° 0 mm 2 m/S 745 mmHg 98%
    05:00 +15°C° 0 mm 2 m/S 745 mmHg 98%
    06:00 +15°C° 0 mm 2 m/S 745 mmHg 95%
    07:00 +16°C° 0 mm 2 m/S 745 mmHg 92%
    08:00 +17°C° 0 mm 2 m/S 746 mmHg 90%
    09:00 +18°C° 0,1 mm 3 m/S 746 mmHg 81%
    10:00 +19°C° 0,1 mm 3 m/S 746 mmHg 72%
    11:00 +20°C° 0,1 mm 3 m/S 746 mmHg 64%
    12:00 +20°C° 0 mm 3 m/S 746 mmHg 62%
    13:00 +21°C° 0 mm 3 m/S 746 mmHg 59%
    14:00 +21°C° 0 mm 3 m/S 746 mmHg 57%
    15:00 +21°C° 0 mm 3 m/S 746 mmHg 59%
    16:00 +20°C° 0 mm 2 m/S 746 mmHg 60%
    17:00 +20°C° 0 mm 2 m/S 746 mmHg 62%
    18:00 +18°C° 0 mm 2 m/S 746 mmHg 69%
    19:00 +16°C° 0 mm 2 m/S 746 mmHg 75%
    20:00 +15°C° 0 mm 1 m/S 746 mmHg 82%
    21:00 +14°C° 0 mm 1 m/S 746 mmHg 83%
    22:00 +14°C° 0 mm 1 m/S 747 mmHg 84%
    23:00 +13°C° 0 mm 1 m/S 747 mmHg 86%
    Mehr zeigen